LEMUR-2-DUSTINTHEWIND (44405 NORAD) Tracking and Keplerian Element Data

This shows tracking and keplerian element data for the satellite.

Feedback or suggestion? Click here.




ElementValue
Catalog44405
NameLEMUR-2-DUSTINTHEWIND
Epoch Orbit430
Epoch Day214.95898759
Epoch Year2019
RAAN176.3511
Inclination97.4885
Eccentricity0.0025865
Argument of Perigee143.8653
Mean Anonmoly216.4332
Mean Motion15.11856603
Decay Rate7.03E-06
L11 44405U 19038V 19214.95898759 .00000703 00000-0 44583-4 0 9993
L22 44405 97.4885 176.3511 0025865 143.8653 216.4332 15.11856603 4304

Live tracking and technical data element details for LEMUR-2-DUSTINTHEWIND (NORAD 44405). LEMUR-2-DUSTINTHEWIND can be tracked NOW for your location showing map with azimuth and elevation plus other details from your city location.

Track the satellite on the map from your city or location and see movement details for azimuth, elevation, latitude, longitude, range, height, and movement on the map or in text.







IsCatalogInMostPopularTable: catalog: 44405, numindb: 11
Update: records affected: 1



GetName: 44405 LEMUR-2-DUSTINTHEWIND

Hit Count: updated at: Tue, 22 Oct 2019 23:34:50 GMT